Other Public Products
Issued by NWS Grand Forks, ND

Home | Current Version | Previous Version | Graphics & Text | Print | Product List | Glossary On
Versions: 1 2 3 4 5 6 7 8 9 10 11 12 13 14 15 16 17 18 19 20 21 22 23 24 25 26 27 28 29 30 31 32 33 34 35 36 37 38 39 40 41 42 43 44 45 46 47 48 49 50
000
FPUS83 KFGF 260810
OPUFGF
PRAIRIE TO PINES WEATHER ROUNDUP
NATIONAL WEATHER SERVICE EASTERN NORTH DAKOTA/GRAND FORKS ND
300 AM CDT WED JUL 26 2017

 **SATELLITE DATA USED TO AUGMENT SKY COVER AT AUTOMATED STATIONS**
 *****  WEATHER ACROSS EASTERN NORTH DAKOTA  *****

CITY           SKY/WX    TMP DP  RH WIND       PRES   REMARKS
GRAND FORKS    FAIR      62  60  93 W7        29.97F
GRAND FORKS AF FAIR      60  58  91 W5        29.98F
GRAND CITY NWS NOT AVBL
BUXTON           N/A     62  61  96 W6          N/A
DEVILS LAKE    FAIR      65  62  90 SW7       30.04S
FARGO          FAIR      62  59  90 N3        29.98S
WAHPETON ARPT  FAIR      68  61  77 CALM      29.99S
$$

 *****  WEATHER ACROSS CENTRAL AND WESTERN NORTH DAKOTA  *****

CITY           SKY/WX    TMP DP  RH WIND       PRES   REMARKS
JAMESTOWN      FAIR      62  59  90 N3        30.02F
BISMARCK       FAIR      68  56  65 NE8       30.07S
MINOT          FAIR      61  54  77 SW6       30.07R
MINOT AFB      FAIR      55  52  89 NW7       30.05S
GARRISON         N/A     60  55  83 N3        30.08R
WILLISTON      FAIR      59  47  64 CALM      30.11R
DICKINSON      FAIR      65  48  54 E5        30.10R
HETTINGER      FAIR      64  53  67 CALM      30.11S
$$

 *****  OTHER OBSERVATIONS NORTHEAST NORTH DAKOTA  *****

CITY           SKY/WX    TMP DP  RH WIND       PRES   REMARKS
WALHALLA       NOT AVBL
LANGDON        FAIR      57  57 100 W8        30.03S
CAVALIER       FAIR      61  59  94 W7        29.97S
GRAFTON        FAIR      63  61  94 W9        30.00S
CANDO          NOT AVBL
FORT TOTTEN      N/A     60  58  92 CALM      29.95S
ROLLA            N/A     59  59 100 NW8       30.05S
RUGBY          NOT AVBL
 ***** THE ABOVE OBSERVATIONS ARE NON NWS ARE NOT QUALITY
        CONTROLLED AND MAY MIS-REPORT RAIN FOR SNOW...
$$

 *****  OTHER OBSERVATIONS SOUTHEAST NORTH DAKOTA *****

CITY           SKY/WX    TMP DP  RH WIND       PRES   REMARKS
COOPERSTOWN    FAIR      59  59 100 W6        30.03S
VALLEY CITY    FAIR      63  63 100 NW7       30.03F
OAKES          NOT AVBL
GWINNER        SUNNY     64  59  82 CALM      30.02R
SHEYENNE NWR     N/A     65  61  86 N3        29.95S
BUFFALO          N/A     62  57  84 SE3         N/A
WYNDMERE       NOT AVBL
 ***** THE ABOVE OBSERVATIONS ARE NON NWS ARE NOT QUALITY
       CONTROLLED AND MAY MIS-REPORT RAIN FOR SNOW...
$$

  *****  WEATHER ACROSS NORTHERN MINNESOTA  *****

CITY           SKY/WX    TMP DP  RH WIND       PRES   REMARKS
FLAG ISLAND    FAIR      64  57  77 W9        29.92S
WARROAD        FAIR      61  57  88 SW6       29.96R
ROSEAU         FAIR      63  57  82 SW5       29.96S
HALLOCK        FAIR      61  57  88 W3        29.96S
THF RVR FALLS  FAIR      60  56  86 W8        29.98F
HALSTAD        NOT AVBL
FOSSTON        FAIR      54  52  94 CALM      29.99F
BAUDETTE       FAIR      61  57  87 W7        29.94F
WASKISH        FAIR      68  61  77 W10       29.95F
CROOKSTON      FAIR      61  57  88 NW5       29.98F
$$
  *****  WEATHER ACROSS CENTRAL AND WEST MINNESOTA  *****

CITY           SKY/WX    TMP DP  RH WIND       PRES   REMARKS
BEMIDJI        FAIR      58  55  91 W5        29.97S
PARK RAPIDS    FAIR      64  58  80 NW5       29.98R
WADENA         FAIR      66  66 100 NW5       29.98F
DETROIT LAKES  FAIR      64  57  77 N5        30.00S
MOORHEAD       FAIR      57  55  94 N5        29.98S
FERGUS FALLS   FAIR      70  70 100 CALM      29.98S
ELBOW LAKE     FAIR      69  69 100 CALM      30.00R
MORRIS MN      MOCLDY    73  72  94 CALM      29.99R
STAPLES        FAIR      66  66 100 N5        29.98S
WHEATON        CLOUDY    72  70  94 CALM      30.01R
$$
  *****  WEATHER ELSEWHERE ACROSS MINNESOTA  *****

CITY           SKY/WX    TMP DP  RH WIND       PRES   REMARKS
DULUTH         FAIR      70  68  93 NW10      29.92S
INTRNTL FALLS  FAIR      61  56  83 W7        29.93F
ELY            FAIR      64  63  94 NW5       29.93F
CLOQUET        MOCLDY    72  66  83 W7        29.94F
BRAINERD       FAIR      71  67  87 NW9       29.97S
HIBBING        FAIR      61  61 100 N6        29.94F FOG
ALEXANDRIA     MOCLDY    71  70  96 W3        30.01R
SAINT CLOUD    CLOUDY    70  70 100 S3        29.97R
MINNEAPOLIS    CLOUDY    76  73  91 SE6       29.95F FOG
$$

  *****  WEATHER ACROSS SOUTH DAKOTA  *****

CITY           SKY/WX    TMP DP  RH WIND       PRES   REMARKS
SIOUX FALLS    LGT RAIN  72  72 100 S7        29.95F
BROOKINGS      FAIR      69  67  93 N5        29.99F
WATERTOWN      FAIR      70  68  93 NE3       29.98F
HURON          FAIR      70  69  97 CALM      29.96S
SISSETON         N/A     71  70  96 NW3       29.99R
ABERDEEN       FAIR      70  68  93 N6        29.99S
MITCHELL       FAIR      71  68  90 N7        29.98R
PIERRE         FAIR      73  66  78 S9        29.99R
MOBRIDGE       FAIR      72  62  71 CALM      30.01R
RAPID CITY     CLOUDY    69  54  58 NW9       30.12R
$$

  *****  SOME WEATHER IN NEARBY STATES *****

CITY           SKY/WX    TMP DP  RH WIND       PRES   REMARKS
GLASGOW MT     FAIR      65  42  43 NE13      30.09R
GREAT FALLS MT FAIR      62  38  40 E5        30.10R
CHEYENNE WY    MOCLDY    62  54  74 NW8       30.24S
SCOTTSBLUFF NE CLOUDY    74  61  63 N6        30.10S
OMAHA NE       CLOUDY    83  73  72 S14       29.93F
DES MOINES IA  CLOUDY    78  71  79 SE6       29.99F
DAVENPORT IA   FAIR      72  66  81 S9        30.09F
CHICAGO IL     MOCLDY    68  59  73 S6        30.11F
EAU CLAIRE WI  FAIR      71  69  93 CALM      29.99F
LA CROSSE WI   FAIR      76  69  79 SE6       30.00F
$$

  *****  SOME NATIONAL WEATHER *****

CITY           SKY/WX    TMP DP  RH WIND       PRES   REMARKS
LA GUARDIA NY  CLOUDY    67  59  75 NE6       30.20F
RALEIGH NC     FAIR      72  68  87 NE5       30.15R
ATLANTA GA     FAIR      76  74  93 CALM      30.11R
NEW ORLEANS LA FAIR      79  76  90 CALM      30.10S
OKLAHOMA CITY  FAIR      78  70  76 S12       30.03F
ALBUQUERQUE NM FAIR      71  56  58 SE3       30.22S
SALT LAKE CITY MOCLDY    75  60  59 SE6       30.11S
LOS ANGELES CA FAIR      68  64  87 W10       29.99F
BOISE ID       FAIR      78  51  38 E9        30.01R
SEATTLE WA     FAIR      67  52  58 NW5       30.03R
$$

*** WEATHER ACROSS MANITOBA...SASKATCHEWAN AND ONTARIO ***
                ***ONTARIO***

CITY           SKY/WX    TMP DP  RH WIND       PRES   REMARKS
GERALDTON      LGT RAIN  63  59  88 SW6       29.77F
THUNDER BAY    MOCLDY    66  64  94 W6        29.83F
SIOUX LOOKOUT  PTCLDY    63  55  77 W6        29.85R
TORONTO        CLEAR     59  52  77 W5        30.21S
BIG TROUT LK   CLOUDY    59  59 100 W12G20    29.57S
PICKLE LAKE    NOT AVBL
DRYDEN         CLEAR     61  57  88 W9        29.89S
KENORA         PTCLDY    61  57  88 W6        29.92S
$$
                *** MANITOBA***

CITY           SKY/WX    TMP DP  RH WIND       PRES   REMARKS
BRANDON        CLEAR     57  55  94 NW7       30.02R
DAUPHIN        CLEAR     59  57  94 W8        29.99R
ISLAND LAKE    NOT AVBL
PILOT MOUND      N/A     57  55  94 W5          N/A
THE PAS        PTCLDY    64  55  72 W12       29.93S
THOMPSON       MOCLDY    63  57  82 NW8       29.81R
WINNIPEG       CLEAR     61  59  94 W9        29.94R
LYNN LAKE      PTCLDY    61  55  82 W6        29.87R
CHURCHILL      MOCLDY    52  52 100 NW7       29.70R
GILLAM         PTCLDY    63  61  94 NW12      29.69S
$$
                ***SASKATCHEWAN***

CITY           SKY/WX    TMP DP  RH WIND       PRES   REMARKS
ESTEVAN        CLEAR     52  52 100 NE6       30.09S
KINDERSLEY     PTCLDY    55  50  82 S3        30.10S
LLOYDMINSTER   CLEAR     55  50  82 SW8       30.08S
PRINCE ALBERT  MOCLDY    55  52  88 W2        30.06S
REGINA         CLEAR     54  48  82 S3        30.11S
YORKTON        CLEAR     59  55  88 W9        30.06R


USA.gov is the U.S. government's official web portal to all federal, state and local government web resources and services.